Location: East Everleigh
(51.2667°N, 1.7000°W)
Time: 04:09:51
(UTC+00:00)

Daily predictions for brighter satellites

Satellite Brightness Start Highest point End
(mag) Time Altitude Azimuth Time Altitude Azimuth Time Altitude Azimuth
USA 234 4.3 03:28:58 10° ENE 03:33:58 38° ESE 03:33:58 38° ESE
CZ-4C R/B 3.2 03:54:02 63° ENE 03:54:02 63° ENE 04:01:21 10° ESE
Lacrosse 5 4.3 04:14:15 14° SSE 04:14:15 14° SSE 04:14:58 10° SSE
ATLAS CENTAUR R/B 4.4 04:18:23 11° NNE 04:18:23 11° NNE 04:18:43 10° NNE
Cosmos 2297 Rocket 2.9 04:24:20 48° NE 04:24:20 48° NE 04:28:24 10° NNE
Cosmos 2227 Rocket 2.7 04:27:52 55° NE 04:27:52 55° NE 04:32:17 10° NNE
Cosmos 2219 4.1 04:40:38 36° N 04:40:38 36° N 04:44:04 10° NNE
Nadezhda 4 Rocket 4.3 04:33:23 10° N 04:39:37 63° ENE 04:45:44 10° SSE
Cosmos 1943 4.2 04:43:52 30° N 04:45:55 41° NE 04:51:11 10° ESE
Cosmos 1461 3.9 04:51:01 46° E 04:51:01 46° E 04:54:23 10° SE
NOSS 2-1 (C) 4.2 04:52:06 65° N 04:52:45 72° NE 04:59:42 10° SE
Okean O Rocket 4.1 04:50:18 10° NE 04:53:39 21° E 04:57:00 10° SE
COSMO-SKYMED 1 3.0 04:51:00 10° SSE 04:55:02 60° E 04:55:02 60° E
NOSS 2-1 (D) 4.2 04:55:34 65° NNW 04:56:19 76° NE 05:03:18 10° SE
SL-16 R/B 3.0 04:59:55 38° SSW 04:59:55 38° SSW 05:03:36 10° S
Cosmos 2242 Rocket 3.9 04:58:13 67° ENE 04:58:21 68° ENE 05:02:52 10° SSE
Cosmos 1607 3.8 04:58:45 63° SW 04:59:51 86° NW 05:06:04 10° NE
Cosmos 2084 Rocket 3.8 05:03:00 66° ESE 05:03:00 66° ESE 05:06:50 10° SE
Cosmos 614 Rocket 4.1 05:04:28 58° SSW 05:04:28 58° SSW 05:08:41 10° SSE
Cosmos 1470 Rocket 3.8 04:59:31 10° S 05:03:58 70° E 05:08:28 10° NNE
Cosmos 1603 4.0 05:02:03 37° NNW 05:04:18 65° NE 05:10:00 10° SE
Meteor 1-27 Rocket 3.7 05:03:30 60° NW 05:04:29 72° W 05:10:23 10° S
Cosmos 407 Rocket 3.4 05:06:12 70° SW 05:06:12 70° SW 05:11:19 10° SSE
Cosmos 1703 Rocket 4.4 05:03:53 25° N 05:06:15 49° ENE 05:10:34 10° SSE
CZ-2C R/B 3.9 05:06:01 10° N 05:07:45 22° N 05:07:45 22° N
Cosmos 2082 3.5 05:10:07 53° SW 05:11:31 80° WNW 05:17:10 10° NNE
Cosmos 1140 Rocket 3.3 05:11:47 60° NNW 05:12:45 86° WSW 05:17:58 10° SSE
USA 234 3.2 05:11:57 10° ENE 05:18:31 85° NNW 05:21:19 38° WSW
ATLAS 5 CENTAUR R/B 1.7 05:19:24 63° NNW 05:19:24 63° NNW 05:24:12 10° NE
Cosmos 2034 Rocket 3.9 05:13:03 10° S 05:19:22 86° W 05:25:48 10° N
SKYMED 3 4.4 05:15:05 10° SSE 05:19:25 79° WSW 05:19:27 79° W
Cosmos 1023 Rocket 4.4 05:23:55 53° NW 05:25:00 68° WSW 05:30:11 10° SSE
Meteor 2-11 Rocket 4.3 05:23:45 10° SSW 05:29:50 75° WNW 05:36:00 10° N
BREEZE-M DEB (TANK) 4.2 05:23:22 14° SW 05:32:00 51° SSE 05:35:26 10° E
ADEOS Rocket 4.4 05:25:57 10° SE 05:32:23 42° ENE 05:38:14 10° N
STARLINK 1044 3.7 05:35:58 45° SE 05:35:58 45° SE 05:38:08 10° ESE
STARLINK 1050 3.1 05:37:01 77° SSE 05:37:01 77° SSE 05:40:16 10° ESE
CZ-4B DEB 4.4 05:31:28 10° NNE 05:37:00 75° ESE 05:42:32 10° S
Cosmos 1484 Rocket 2.7 05:35:34 10° N 05:39:32 67° WNW 05:43:26 10° SSW
STARLINK 1055 3.0 05:39:36 79° S 05:39:36 79° S 05:42:57 10° ESE
PSLV R/B 3.8 05:36:23 10° N 05:40:28 70° WNW 05:44:34 10° SSW
STARLINK 1022 3.0 05:41:19 77° SSW 05:41:20 77° SSW 05:44:44 10° ESE
NOSS 2-1 (E) 4.4 05:39:33 37° WNW 05:41:53 70° SW 05:49:16 10° SSE
CZ-4C R/B 3.3 05:39:14 33° WNW 05:42:00 45° WSW 05:49:38 10° S
SKYMED 2 3.8 05:39:18 10° S 05:43:29 47° W 05:43:42 46° W
Cosmos 1092 Rocket 3.8 05:37:24 10° NNW 05:43:36 74° W 05:49:43 10° S
STARLINK 1042 2.9 05:44:37 72° SW 05:44:47 75° SSW 05:48:10 10° ESE
STARLINK 1056 3.0 05:47:16 67° WSW 05:47:32 72° SSW 05:50:55 10° ESE
SOZ 4.0 05:48:00 69° E 05:48:00 69° E 05:49:50 10° E
SJ-12 3.8 05:45:26 10° N 05:49:35 74° WNW 05:53:41 10° SSW
Cosmos 1624 Rocket 3.9 05:44:21 10° SSW 05:49:41 76° WNW 05:55:03 10° NNE
STARLINK 1054 3.0 05:49:56 62° WSW 05:50:18 70° SSW 05:53:40 10° ESE
Lacrosse 5 4.1 05:53:29 10° SW 05:53:29 10° SW 05:53:43 10° SW
STARLINK 1062 3.1 05:52:24 58° WSW 05:52:52 68° SSW 05:56:15 10° ESE
FALCON 9 DEB 3.8 05:53:58 29° SSE 05:53:58 29° SSE 05:55:29 10° SE
Cosmos 1464 Rocket 4.3 05:47:45 10° SW 05:53:31 39° WNW 05:59:16 10° N
Cosmos 2263 Rocket 3.0 05:49:10 10° S 05:54:33 52° ESE 05:59:58 10° NE
Cosmos 2056 Rocket 3.3 05:49:33 10° SSW 05:54:38 71° WNW 05:59:48 10° NNE
STARLINK 1053 3.1 05:55:18 53° WSW 05:55:53 66° SSW 05:59:15 10° ESE
ATLAS CENTAUR R/B 3.4 05:54:35 15° NNW 05:56:39 19° NNE 05:59:45 10° ENE
Cosmos 676 Rocket 4.2 05:54:14 28° NW 05:56:45 51° WSW 06:01:50 10° S
STARLINK 1061 3.2 05:57:38 49° WSW 05:58:18 64° SSW 06:01:41 10° ESE
Cosmos 2227 4.4 05:54:54 10° SSW 06:00:38 75° ESE 06:06:25 10° NNE
STARLINK 1067 3.2 06:00:18 45° W 06:01:05 62° SSW 06:04:27 10° ESE
STARLINK 1058 3.3 06:02:52 42° W 06:03:45 60° SSW 06:07:07 10° SE
STARLINK 1043 3.3 06:05:30 39° W 06:06:29 58° SSW 06:09:50 10° SE
ALOS 2.2 06:02:23 10° N 06:07:02 65° WNW 06:11:40 10° SSW
Cosmos 2297 Rocket 3.1 06:06:11 25° WNW 06:07:24 27° NW 06:12:11 10° NNE
Cosmos 1954 Rocket 4.4 06:05:30 23° NW 06:08:21 44° WSW 06:13:19 10° S
STARLINK 1065 3.4 06:08:04 36° W 06:09:09 56° SSW 06:12:29 10° SE
Okean 1-7 3.2 06:06:28 16° NNW 06:09:46 49° W 06:14:00 10° SSW
Cosmos 1933 Rocket 4.0 06:05:54 10° SW 06:09:56 37° WNW 06:14:01 10° N
Cosmos 2227 Rocket 3.2 06:09:44 24° WNW 06:11:16 27° NW 06:16:04 10° NNE
CZ-4B R/B 3.2 06:06:01 10° NNE 06:11:37 89° WNW 06:17:16 10° SSW
STARLINK 1063 3.4 06:10:50 34° W 06:12:01 54° SSW 06:15:21 10° SE
Cosmos 1346 Rocket 3.5 06:09:29 10° S 06:13:15 54° E 06:17:04 10° NNE
Meteor 1-25 Rocket 4.1 06:08:28 10° SSW 06:14:03 73° WNW 06:19:46 10° N
STARLINK 1064 3.5 06:13:21 31° W 06:14:37 52° SSW 06:17:57 10° SE
PAYLOAD B 4.2 06:10:50 10° NNE 06:16:19 66° WNW 06:21:46 10° SSW
Cosmos 1420 Rocket 4.0 06:11:23 10° SSW 06:16:35 89° ESE 06:21:49 10° NNE
STARLINK 1041 3.5 06:15:59 29° W 06:17:21 50° SSW 06:20:41 10° SE
FALCON 9 DEB 3.6 06:17:13 25° SW 06:17:21 25° SSW 06:19:24 10° SSE
Cosmos 2221 Rocket 3.5 06:13:44 10° N 06:18:11 88° W 06:22:36 10° S
FENGYUN 3A 3.6 06:13:47 10° N 06:19:07 61° WNW 06:24:24 10° SSW
CZ-4 R/B 4.4 06:17:05 10° NE 06:19:19 15° E 06:21:34 10° SE
STARLINK 1038 3.6 06:18:39 27° W 06:20:08 48° SSW 06:23:26 10° SE
STARLINK 1046 3.6 06:21:17 26° W 06:22:52 46° SSW 06:26:10 10° SE
Cosmos 1741 Rocket 3.9 06:18:01 11° NNW 06:23:00 75° WSW 06:28:12 10° SSE
FALCON 9 DEB 3.8 06:23:04 22° SW 06:23:26 23° SSW 06:25:24 10° SSE
STARLINK 1039 3.7 06:23:57 24° W 06:25:38 45° SSW 06:28:54 10° SE
STARLINK 1045 3.7 06:24:41 23° W 06:26:24 44° SSW 06:29:41 10° SE
Cosmos 1461 4.2 06:27:27 19° W 06:28:58 24° WSW 06:32:27 10° S
Meteor 1-19 Rocket 4.2 06:24:23 10° NNW 06:29:49 64° W 06:35:18 10° S
Cosmos 1943 3.6 06:25:42 15° NW 06:30:02 44° WSW 06:35:19 10° S
Cosmos 2266 Rocket 4.4 06:23:54 10° N 06:30:11 66° ENE 06:36:19 10° SSE
Okean O Rocket 1.7 06:26:03 10° N 06:30:18 52° WNW 06:34:34 10° SW
H-2A R/B 3.1 06:26:39 10° NNE 06:30:22 66° ESE 06:34:06 10° S
STARLINK 1034 3.8 06:29:52 21° W 06:31:13 33° SSW 06:33:54 10° SE
COSMO-SKYMED 1 4.0 06:28:55 10° SW 06:31:51 18° W 06:32:14 17° W
STARLINK 1027 3.8 06:30:33 21° W 06:31:53 32° SSW 06:34:33 10° SE
STARLINK 1028 3.8 06:30:46 21° W 06:32:07 32° SSW 06:34:47 10° SE
STARLINK 1021 3.8 06:30:59 21° W 06:32:21 32° SSW 06:35:00 10° SE
STARLINK 1019 3.8 06:31:09 21° W 06:32:33 32° SSW 06:35:15 10° SE
STARLINK 1012 3.8 06:31:24 21° W 06:32:46 32° SSW 06:35:26 10° SSE
STARLINK 1010 3.8 06:31:37 20° W 06:33:00 32° SSW 06:35:39 10° SSE
STARLINK 1052 3.8 06:31:40 20° W 06:33:04 32° SSW 06:35:45 10° SSE
STARLINK 1026 3.9 06:31:51 20° W 06:33:15 31° SSW 06:35:54 10° SSE
STARLINK 1013 3.9 06:32:04 20° W 06:33:28 31° SSW 06:36:07 10° SSE
STARLINK 1009 3.9 06:32:16 20° W 06:33:41 31° SSW 06:36:19 10° SSE
STARLINK 1015 3.9 06:32:29 20° W 06:33:54 31° SSW 06:36:33 10° SSE
STARLINK 1016 3.9 06:32:42 20° W 06:34:08 31° SSW 06:36:47 10° SSE
STARLINK 1008 3.9 06:32:56 20° W 06:34:22 31° SSW 06:37:01 10° SSE
STARLINK 1014 3.9 06:33:09 20° W 06:34:35 31° SSW 06:37:13 10° SSE
STARLINK 1017 3.9 06:33:12 20° W 06:34:38 31° SSW 06:37:17 10° SSE
STARLINK 1025 3.9 06:33:22 19° W 06:34:48 31° SSW 06:37:27 10° SSE
STARLINK 1023 3.9 06:33:48 19° W 06:35:16 30° SSW 06:37:54 10° SSE
STARLINK 1007 3.9 06:33:59 19° W 06:35:28 30° SSW 06:38:05 10° SSE
STARLINK 1048 3.9 06:34:13 19° W 06:35:42 30° SSW 06:38:19 10° SSE
STARLINK 1049 3.9 06:34:26 19° W 06:35:55 30° SSW 06:38:33 10° SSE
STARLINK 1040 4.0 06:34:33 19° W 06:36:02 29° SSW 06:38:38 10° SSE
Envisat 4.4 06:31:18 10° NNE 06:36:08 42° E 06:40:56 10° SSE
STARLINK 1051 3.9 06:34:39 19° W 06:36:08 30° SSW 06:38:46 10° SSE
STARLINK 1037 3.9 06:34:53 19° W 06:36:22 30° SSW 06:39:00 10° SSE
STARLINK 1059 3.9 06:35:05 19° W 06:36:36 30° SSW 06:39:13 10° SSE
STARLINK 1057 3.9 06:35:18 19° W 06:36:49 30° SSW 06:39:26 10° SSE
STARLINK 1068 4.0 06:35:44 18° W 06:37:16 30° SSW 06:39:53 10° SSE
STARLINK 1029 4.0 06:35:57 18° W 06:37:30 29° SSW 06:40:06 10° SSE
STARLINK 1060 4.0 06:36:11 18° W 06:37:43 29° SSW 06:40:20 10° SSE
STARLINK 1030 4.0 06:36:21 18° W 06:37:56 30° SSW 06:40:35 10° SSE
Helios 1A Rocket 3.2 06:34:07 10° N 06:37:59 43° WNW 06:41:49 10° SW
STARLINK 1020 4.0 06:36:36 18° W 06:38:10 29° SSW 06:40:46 10° SSE
NOAA 6 4.1 06:33:29 10° N 06:38:28 53° WNW 06:43:25 10° SW
Cosmos 2082 Rocket 4.2 06:34:47 10° NNW 06:38:34 18° NNE 06:42:20 10° ENE
STARLINK 1033 4.0 06:37:14 18° W 06:38:49 29° SSW 06:41:25 10° SSE
STARLINK 1031 4.0 06:37:29 17° W 06:39:04 29° SSW 06:41:39 10° SSE
STARLINK 1024 4.0 06:37:39 17° W 06:39:17 29° SSW 06:41:55 10° SSE
STARLINK 1035 4.0 06:37:54 17° W 06:39:30 29° SSW 06:42:06 10° SSE
STARLINK 1032 4.0 06:38:07 17° W 06:39:43 28° SSW 06:42:19 10° SSE
STARLINK 1011 4.0 06:38:17 17° W 06:39:56 29° SSW 06:42:34 10° SSE
STARLINK 1036 4.0 06:38:34 17° W 06:40:11 28° SSW 06:42:46 10° SSE
STARLINK 1047 4.0 06:38:59 17° W 06:40:38 28° SSW 06:43:12 10° SSE
Cosmos 1452 Rocket 3.5 06:36:11 10° SSW 06:41:27 75° WNW 06:46:47 10° NNE
Cosmos 1932 4.5 06:35:16 10° SW 06:41:37 69° NW 06:48:08 10° NE
Okean 1 4.1 06:38:20 11° NNW 06:41:42 30° W 06:45:11 10° SSW
Okean-O 3.8 06:37:45 10° NNE 06:42:05 48° E 06:46:21 10° S
Cosmos 1850 Rocket 4.3 06:39:51 10° NNW 06:45:01 50° WSW 06:50:09 10° S
Meteor 2-13 Rocket 4.4 06:40:54 10° NNW 06:46:59 69° W 06:53:04 10° S
Cosmos 2026 Rocket 4.5 06:41:42 10° NNW 06:47:15 37° W 06:52:51 10° SSW
CZ-2C R/B 4.2 06:46:43 10° NW 06:47:07 10° NW 06:47:07 10° NW
Meteor 2-4 Rocket 3.7 06:42:44 10° NNW 06:48:18 69° W 06:53:41 10° S
AQUARIUS 4.2 06:45:08 10° NNE 06:49:40 89° ESE 06:54:10 10° SSW
SWAS 4.5 06:47:15 10° SSW 06:51:34 88° WNW 06:55:57 10° NNE
Cosmos 1733 Rocket 3.0 06:54:01 10° S 06:58:20 89° W 07:02:42 10° N
Cosmos 405 2.9 06:56:17 10° NNW 06:59:51 80° WSW 07:03:23 10° S
Feng Yun 1-1 Rocket 4.3 06:54:37 10° NNE 07:00:10 86° WNW 07:05:51 10° SSW
Cosmos 2279 Rocket 4.1 06:54:37 10° SSW 07:00:42 58° WNW 07:06:52 10° N
USA 234 3.5 06:54:57 10° ENE 07:01:18 56° N 07:07:39 10° W
Cosmos 1655 Rocket 4.1 06:56:17 10° NNW 07:02:21 56° W 07:08:23 10° SSW
ATLAS 5 CENTAUR R/B 3.1 07:00:57 10° WNW 07:04:50 25° NNW 07:09:12 10° NE
Cosmos 1869 Rocket 4.4 07:01:16 10° SW 07:05:01 28° WNW 07:08:49 10° N
CZ-2C R/B 3.8 07:00:08 10° SE 07:05:07 43° ENE 07:10:02 10° N
Cosmos 1634 Rocket 4.5 06:59:35 10° SW 07:05:15 36° WNW 07:10:56 10° N
Meteor 1-13 Rocket 4.2 07:01:41 10° NNW 07:07:09 65° W 07:12:38 10° S
Cosmos 1536 3.3 07:05:02 10° S 07:09:04 69° E 07:13:09 10° NNE
NOAA 12 4.2 07:06:58 10° NNE 07:12:16 88° ESE 07:17:31 10° SSW
CORIOLIS 4.2 07:07:11 10° NNE 07:12:39 77° WNW 07:18:02 10° SSW
Cosmos 1500 3.2 07:13:45 10° SSW 07:17:33 62° WNW 07:21:23 10° N
Okean 3 4.4 07:14:09 10° NNW 07:17:45 29° W 07:21:22 10° SSW
ADEOS Rocket 3.6 07:11:03 10° S 07:17:51 48° W 07:24:03 10° NNW
Cosmos 1340 3.6 07:16:56 10° SW 07:20:10 27° WNW 07:23:25 10° N
Cosmos 1975 Rocket 4.0 07:16:18 10° N 07:20:38 49° ENE 07:24:57 10° SSE
